Flag for Canada Weather past 2 weeks in Dieppe, New Brunswick, Canada

Now
28 °F

Light snow. Overcast.


Feels Like: 19 °F
Forecast: 29 / 32 °F
Wind: 10 mph from Northwest

Location: Moncton

Current Time: Dec 19, 2014 at 10:52:03 AM

Latest Report: Dec 19, 2014 at 10:00 AM


Visibility: 6 mi

Pressure: 29.69 "Hg

Humidity: 93%

Dew point: 27 °F

Location of DieppeLocation

Historic Weather in Dieppe — Graph

°F

Dieppe temperature yesterday

Maximum temperature yesterday: 34 °F (at 2:00 AM)
Minimum temperature yesterday: 32 °F (at 12:00 AM)
Average temperature yesterday: 33 °F

Past Weeks' High & Low Weather Summary

 TemperatureHumidityPressure
High50 °F (Dec 11, 2:00 PM)100% (Dec 6, 5:00 PM)30.84 "Hg (Dec 6, 5:00 PM)
Low1 °F (Dec 8, 6:00 AM)32% (Dec 5, 2:00 PM)29.32 "Hg (Dec 18, 5:00 PM)
Average29 °F83%30.05 "Hg
* Reported Dec 4 9:00 AM — Dec 19 9:00 AM, Dieppe, Weather by CustomWeather, © 2014

Note: Actual official high and low records may vary slightly from our data, if they occured in-between our weather recording intervals... More about our weather records

Advertising

Dieppe weather history for previous 24 hours

 ConditionsComfort  
Time TempWeatherWind HumidityBarometerVisibility
9:00 AM
Dec 19
28 °FLight snow. Mostly cloudy.10 mph93%29.67 "Hg2 mi
8:00 AM28 °FLight snow. Mostly cloudy.12 mph86%29.64 "Hg12 mi
7:00 AM28 °FLight snow. Mostly cloudy.9 mph93%29.62 "Hg7 mi
6:49 AM28 °FLight snow. Overcast.12 mph86%29.61 "Hg4 mi
6:00 AM28 °FLight snow. Mostly cloudy.10 mph93%29.59 "Hg4 mi
5:00 AM28 °FLight snow. Mostly cloudy.12 mph93%29.56 "Hg2 mi
4:56 AM28 °FLight snow. Mostly cloudy.16 mph93%29.56 "Hg2 mi
4:00 AM28 °FLight snow. Mostly cloudy.14 mph93%29.53 "Hg7 mi
3:00 AM30 °FLight snow. Mostly cloudy.15 mph93%29.51 "Hg5 mi
2:00 AM30 °FLight snow. Mostly cloudy.15 mph93%29.47 "Hg3 mi
1:00 AM30 °FLight snow. Mostly cloudy.15 mph93%29.44 "Hg2 mi
12:00 AM32 °FLight snow. Mostly cloudy.15 mph93%29.42 "Hg2 mi
11:00 PM
Dec 18
32 °FLight snow. Mostly cloudy.12 mph93%29.40 "Hg2 mi
10:00 PM32 °FLight snow. Low clouds.9 mph93%29.38 "Hg2 mi
9:46 PM32 °FLight snow. Low clouds.9 mph93%29.37 "Hg2 mi
9:00 PM32 °FLight snow. Mostly cloudy.9 mph93%29.35 "Hg5 mi
8:00 PM32 °FLight snow. Low clouds.7 mph93%29.34 "Hg1 mi
7:00 PM32 °FLight snow. Low clouds.9 mph93%29.33 "Hg1 mi
6:00 PM32 °FLight snow. Low clouds.9 mph93%29.33 "Hg8 mi
5:00 PM32 °FSnow flurries. Low clouds.15 mph93%29.32 "Hg8 mi
4:00 PM32 °FSnow flurries. Ice fog.12 mph93%29.32 "Hg4 mi
3:00 PM34 °FSnow flurries. Fog.9 mph93%29.32 "Hg2 mi
2:00 PM34 °FSnow flurries. Fog.12 mph93%29.32 "Hg1 mi
1:48 PM34 °FSnow flurries. Fog.13 mph93%29.32 "Hg1 mi
1:00 PM34 °FFog.12 mph93%29.32 "Hg2 mi
12:00 PM34 °FFog.13 mph93%29.33 "Hg3 mi
11:00 AM34 °FLight snow. Fog.8 mph93%29.34 "Hg2 mi
10:03 AM32 °FSleet. Ice fog.6 mph100%29.35 "Hg1 mi
Weather by CustomWeather, © 2014

See weather overviewHow to use our weather pages